EW6336 Weather Reports


Display with metric or nautical units.
time (UTC)temp
F
wind
direction
speed
MPH
gust
MPH
rain 1hr
in
rain 24hr
in
rain mn
in
humidity
%
barometer
mb
20260507161517 68 225 5.0 12.0 0.00 0.00 0.00 68 1009.8
20260507160516 68 180 4.0 8.0 0.00 0.00 0.00 72 1009.7
20260507155536 68 225 4.0 8.0 0.00 0.00 0.00 72 1009.8
20260507154516 69 225 4.0 13.0 0.00 0.00 0.00 71 1009.7
20260507153516 69 203 4.0 10.0 0.00 0.00 0.00 71 1009.7
20260507152556 70 248 4.0 10.0 0.00 0.00 0.00 71 1009.8
20260507151516 70 248 4.0 9.0 0.00 0.00 0.00 71 1009.7
20260507150516 70 270 4.0 9.0 0.00 0.00 0.00 68 1009.7
20260507145516 70 225 3.0 7.0 0.00 0.00 0.00 68 1009.6
20260507144516 70 180 4.0 11.0 0.00 0.00 0.00 65 1009.7
20260507143536 71 158 4.0 11.0 0.00 0.00 0.00 65 1009.8
20260507142536 70 158 3.0 8.0 0.00 0.00 0.00 62 1009.8
20260507141616 69 0 2.0 5.0 0.00 0.00 0.00 62 1009.9
20260507140516 69 135 3.0 7.0 0.00 0.00 0.00 62 1010.1
20260507135516 69 180 2.0 6.0 0.00 0.00 0.00 69 1010.2
20260507134516 69 248 3.0 8.0 0.00 0.00 0.00 69 1010.3
20260507133516 68 248 3.0 7.0 0.00 0.00 0.00 70 1010.3
20260507132516 68 225 3.0 6.0 0.00 0.00 0.00 73 1010.3
20260507131516 67 225 3.0 6.0 0.00 0.00 0.00 74 1010.3
20260507130516 67 180 4.0 9.0 0.00 0.00 0.00 74 1010.3
20260507125516 67 248 3.0 8.0 0.00 0.00 0.00 75 1010.4
20260507124536 68 225 6.0 11.0 0.00 0.00 0.00 72 1010.5
20260507123516 68 158 4.0 10.0 0.00 0.00 0.00 74 1010.6
20260507122536 67 180 6.0 13.0 0.00 0.00 0.00 74 1010.7
20260507121516 68 248 5.0 14.0 0.00 0.00 0.00 73 1010.7
20260507120516 67 248 5.0 9.0 0.00 0.00 0.00 74 1010.8
20260507115556 67 180 6.0 15.0 0.00 0.00 0.00 73 1010.9
20260507114516 67 225 7.0 13.0 0.00 0.00 0.00 74 1011.0
20260507113536 68 203 5.0 10.0 0.00 0.00 0.00 72 1011.0
20260507112516 68 225 4.0 7.0 0.00 0.00 0.00 71 1011.1
20260507111556 67 248 3.0 8.0 0.00 0.00 0.00 71 1011.0
20260507110516 68 225 5.0 10.0 0.00 0.00 0.00 71 1011.0
20260507105516 68 203 4.0 9.0 0.00 0.00 0.00 70 1010.8
20260507104516 68 180 5.0 12.0 0.00 0.00 0.00 68 1010.9
20260507103515 69 203 5.0 15.0 0.00 0.00 0.00 66 1010.8
20260507102515 70 203 5.0 11.0 0.00 0.00 0.00 62 1010.7
20260507101516 71 135 7.0 14.0 0.00 0.00 0.00 59 1010.8
20260507100656 71 135 8.0 12.0 0.00 0.00 0.00 58 1010.8
20260507095515 70 135 3.0 5.0 0.00 0.00 0.00 58 1010.8
20260507094516 70 135 7.0 14.0 0.00 0.00 0.00 57 1010.8
20260507093516 70 113 4.0 9.0 0.00 0.00 0.00 60 1010.8
20260507092535 70 158 5.0 11.0 0.00 0.00 0.00 59 1010.8
20260507091515 70 135 3.0 7.0 0.00 0.00 0.00 59 1010.8
20260507090615 70 90 3.0 7.0 0.00 0.00 0.00 59 1010.9
20260507085535 70 135 4.0 8.0 0.00 0.00 0.00 58 1011.0
20260507084515 69 113 3.0 6.0 0.00 0.00 0.00 58 1011.0
20260507083515 69 113 4.0 8.0 0.00 0.00 0.00 58 1010.9
20260507082515 69 90 3.0 6.0 0.00 0.00 0.00 57 1010.9
20260507081515 70 135 4.0 9.0 0.00 0.00 0.00 54 1010.8
20260507080515 70 23 2.0 3.0 0.00 0.00 0.00 54 1010.8
20260507075517 69 23 2.0 4.0 0.00 0.00 0.00 55 1010.9
20260507075242 69 338 3.0 8.0 0.00 0.00 0.00 55 1010.9
20260507074233 69 113 3.0 6.0 0.00 0.00 0.00 56 1010.9
20260507073302 68 338 3.0 9.0 0.00 0.00 0.00 57 1010.9
20260507072244 68 0.0 3.0 0.00 0.00 0.00 60 1010.8
20260507071244 67 23 1.0 3.0 0.00 0.00 0.00 63 1010.7
20260507070304 66 315 2.0 5.0 0.00 0.00 0.00 65 1010.7
20260507065306 65 45 1.0 4.0 0.00 0.00 0.00 67 1010.7
20260507064244 64 0 1.0 2.0 0.00 0.00 0.00 69 1010.7
20260507063244 64 0.0 2.0 0.00 0.00 0.00 69 1010.7
20260507062244 63 0.0 1.0 0.00 0.00 0.00 70 1010.6
20260507061244 63 338 2.0 4.0 0.00 0.00 0.00 70 1010.5
20260507060244 62 315 1.0 3.0 0.00 0.00 0.00 72 1010.4
20260507055244 62 315 1.0 3.0 0.00 0.00 0.00 74 1010.4
20260507054244 62 0.0 2.0 0.00 0.00 0.00 76 1010.2
20260507053244 62 315 2.0 4.0 0.00 0.00 0.00 76 1010.1
20260507052244 62 0.0 3.0 0.00 0.00 0.00 76 1010.2
20260507051244 62 0.0 2.0 0.00 0.00 0.00 76 1010.1
20260507050244 62 0.0 2.0 0.00 0.00 0.00 76 1010.1
20260507045244 62 45 1.0 2.0 0.00 0.00 0.00 78 1010.0
20260507044244 62 68 2.0 4.0 0.00 0.00 0.00 78 1009.9
20260507043243 63 0.0 2.0 0.00 0.00 0.00 78 1009.8
20260507042244 63 68 1.0 2.0 0.00 0.00 0.00 79 1009.7
20260507041244 63 68 1.0 3.0 0.00 0.00 0.00 78 1009.6
20260507040243 63 135 1.0 4.0 0.00 0.00 0.00 78 1009.6
20260507035243 63 135 2.0 3.0 0.00 0.00 0.00 78 1009.5
20260507034244 63 0.0 0.0 0.00 0.00 0.00 78 1009.3
20260507033303 63 0.0 0.0 0.00 0.00 0.00 78 1009.5
20260507032244 63 315 1.0 2.0 0.00 0.00 0.00 78 1009.4
20260507031304 63 315 1.0 2.0 0.00 0.00 0.00 78 1009.4
20260507030243 63 315 1.0 2.0 0.00 0.00 0.00 78 1009.4
20260507025244 64 315 1.0 3.0 0.00 0.00 0.00 78 1009.5
20260507024243 64 113 1.0 3.0 0.00 0.00 0.00 78 1009.4
20260507023244 64 135 3.0 6.0 0.00 0.00 0.00 78 1009.4
20260507022243 64 180 2.0 7.0 0.00 0.00 0.00 76 1009.5
20260507021243 65 203 3.0 7.0 0.00 0.00 0.00 75 1009.4
20260507020244 64 113 2.0 4.0 0.00 0.00 0.00 74 1009.4
20260507015243 65 113 1.0 3.0 0.00 0.00 0.00 75 1009.4
20260507014243 65 135 2.0 4.0 0.00 0.00 0.00 75 1009.6
20260507013323 65 113 3.0 6.0 0.00 0.00 0.00 75 1009.7
20260507012243 65 113 2.0 4.0 0.00 0.00 0.00 74 1009.8
20260507011404 65 113 3.0 6.0 0.00 0.00 0.00 74 1009.8
20260507010243 65 135 3.0 7.0 0.00 0.00 0.00 72 1010.0
20260507005243 66 113 5.0 9.0 0.00 0.00 0.00 71 1010.1
20260507004243 66 90 4.0 8.0 0.00 0.00 0.00 70 1010.0
20260507003243 66 113 4.0 7.0 0.00 0.00 0.00 70 1009.9
20260507002243 66 135 2.0 4.0 0.00 0.00 0.00 69 1009.8
20260507001243 66 0.0 1.0 0.00 0.00 0.00 70 1010.0
20260507000243 66 135 2.0 4.0 0.00 0.00 0.00 71 1010.1
20260506235242 66 135 2.0 4.0 0.00 0.00 0.00 71 1010.1
20260506234242 66 135 1.0 3.0 0.00 0.00 0.00 71 1010.1
20260506233303 66 135 2.0 3.0 0.00 0.00 0.00 72 1010.1
20260506232306 66 90 1.0 3.0 0.00 0.00 0.00 71 1010.2
20260506231242 66 45 1.0 2.0 0.00 0.00 0.00 71 1010.4
20260506230242 65 45 2.0 4.0 0.00 0.00 0.00 71 1010.4
20260506225242 65 0.0 2.0 0.00 0.00 0.00 72 1010.3
20260506224242 65 0.0 0.0 0.00 0.00 0.00 72 1010.4
20260506223242 65 0.0 0.0 0.00 0.00 0.00 73 1010.6
20260506222242 65 0.0 2.0 0.00 0.00 0.00 73 1010.6
20260506221242 66 90 2.0 3.0 0.00 0.00 0.00 73 1010.7
20260506220242 66 90 2.0 3.0 0.00 0.00 0.00 72 1010.8
20260506215242 66 45 1.0 3.0 0.00 0.00 0.00 72 1010.8
20260506214242 66 0.0 2.0 0.00 0.00 0.00 72 1011.0
20260506213244 66 68 1.0 2.0 0.00 0.00 0.00 73 1010.9
20260506212244 66 113 2.0 6.0 0.00 0.00 0.00 73 1011.0
20260506211244 66 45 1.0 2.0 0.00 0.00 0.00 73 1010.9
20260506210517 66 45 1.0 3.0 0.00 0.00 0.00 74 1010.8
20260506210242 66 90 1.0 4.0 0.00 0.00 0.00 75 1010.7
20260506205537 66 23 2.0 5.0 0.00 0.00 0.00 77 1010.6
20260506204517 66 135 1.0 4.0 0.00 0.00 0.00 77 1010.6
20260506203744 66 135 1.0 2.0 0.00 0.00 0.00 77 1010.6
20260506202744 66 135 1.0 3.0 0.00 0.00 0.00 76 1010.4
20260506201744 66 135 3.0 4.0 0.00 0.00 0.00 76 1010.3
20260506200744 66 113 2.0 4.0 0.00 0.00 0.00 75 1010.2
20260506195744 66 135 1.0 4.0 0.00 0.00 0.00 75 1010.0
20260506194744 67 113 3.0 6.0 0.00 0.00 0.00 74 1009.8
20260506193744 67 113 2.0 4.0 0.00 0.00 0.00 73 1009.8
20260506192744 67 113 2.0 4.0 0.00 0.00 0.00 73 1009.8
20260506191744 67 248 1.0 3.0 0.00 0.00 0.00 73 1009.8
20260506190701 67 248 2.0 4.0 0.00 0.00 0.00 72 1009.7
20260506185744 67 248 1.0 3.0 0.00 0.00 0.00 72 1009.6
20260506184744 67 248 1.0 2.0 0.00 0.00 0.00 72 1009.6
20260506183744 67 180 1.0 3.0 0.00 0.00 0.00 71 1009.6
20260506182744 67 180 1.0 3.0 0.00 0.00 0.00 71 1009.4
20260506181744 67 248 2.0 5.0 0.00 0.00 0.00 71 1009.5
20260506180824 68 180 2.0 5.0 0.00 0.00 0.00 70 1009.6
20260506175744 68 158 3.0 7.0 0.00 0.00 0.00 69 1009.4
20260506174744 69 180 2.0 4.0 0.00 0.00 0.00 69 1009.3
20260506173743 69 158 3.0 5.0 0.00 0.00 0.00 68 1009.3
20260506172744 69 180 2.0 6.0 0.00 0.00 0.00 68 1009.2
20260506171743 69 180 4.0 7.0 0.00 0.00 0.00 67 1009.4
20260506170744 69 180 2.0 5.0 0.00 0.00 0.00 68 1009.3
20260506165744 69 180 2.0 5.0 0.00 0.00 0.00 68 1009.3
20260506165036 69 180 2.0 5.0 0.00 0.00 0.00 69 1009.2
20260506164244 69 225 3.0 5.0 0.00 0.00 0.00 68 1009.1
20260506163303 69 180 3.0 6.0 0.00 0.00 0.00 67 1009.2
20260506162306 69 225 2.0 6.0 0.00 0.00 0.00 69 1009.2